Date,TemperatureHighF,TemperatureAvgF,TemperatureLowF,DewpointHighF,DewpointAvgF,DewpointLowF,HumidityHigh,HumidityAvg,HumidityLow,PressureMaxIn,PressureMinIn,WindSpeedMaxMPH,WindSpeedAvgMPH,GustSpeedMaxMPH,PrecipitationSumIn
2013-12-1,42.1,37.7,34.1,40.5,34.7,25.7,99,89,71,30.38,29.95,8,3,11,0.05
2013-12-2,40.7,38.8,37.5,40.7,38.6,37.2,100,99,99,29.95,29.86,8,2,19,0.05
2013-12-3,48.2,39.2,33.6,41.7,36.4,31.6,100,90,65,29.89,29.79,8,2,10,0.00
2013-12-4,44.5,36.9,30.1,34.2,30.3,28.3,97,78,55,30.15,29.89,6,1,12,0.00
2013-12-5,52.8,45.3,36.7,51.7,41.3,29.7,96,86,74,30.16,29.86,9,2,14,0.00
2013-12-6,56.0,49.2,35.2,55.2,45.5,33.6,97,88,59,30.09,29.80,11,2,21,0.34
2013-12-7,40.7,34.5,27.8,37.5,29.5,22.5,98,83,58,30.39,30.01,9,2,18,0.04
2013-12-8,32.2,29.0,23.3,23.1,19.6,17.0,84,68,55,30.55,30.39,6,1,11,0.00
2013-12-9,40.9,34.4,27.1,40.4,32.8,17.7,99,94,60,30.42,29.82,9,2,13,0.32
2013-12-10,35.1,32.4,24.8,34.9,31.2,19.5,100,96,75,29.92,29.72,7,2,16,0.00
2013-12-11,34.1,26.4,21.6,23.9,21.0,18.9,90,80,61,30.15,29.92,8,2,34,0.00
2013-12-12,26.3,21.2,16.3,21.0,12.2,4.9,88,69,40,30.21,29.99,11,2,34,0.00
2013-12-13,31.2,23.1,16.0,19.1,14.0,3.8,79,68,54,30.33,29.92,11,3,19,0.00
2013-12-14,30.6,17.9,12.0,29.6,9.1,-1.2,96,69,51,30.55,30.09,12,4,20,0.19
2013-12-15,35.7,29.0,23.2,35.4,28.5,22.7,99,98,96,30.09,29.35,20,4,25,0.59
2013-12-16,29.9,24.7,16.9,26.3,17.8,9.9,97,76,50,30.14,29.67,11,2,20,0.00
2013-12-17,21.9,15.7,8.1,20.7,11.1,1.8,95,82,64,30.22,29.87,12,3,21,0.10
2013-12-18,34.8,25.7,17.9,28.7,22.1,16.5,95,87,64,30.01,29.79,11,3,17,0.00
2013-12-19,41.7,33.8,24.7,31.3,27.5,21.4,88,78,60,30.06,29.89,13,2,30,0.00
2013-12-20,51.7,41.9,35.6,39.2,34.0,30.0,83,74,56,30.06,29.84,8,3,30,0.00
2013-12-21,54.7,46.2,40.6,46.9,41.4,34.8,93,84,71,29.90,29.80,11,3,12,0.00
2013-12-22,53.4,41.7,35.8,52.3,41.1,35.8,100,98,93,29.97,29.72,10,3,20,0.00
2013-12-23,38.4,35.3,33.7,38.4,35.3,33.7,100,100,100,30.03,29.89,7,2,11,0.57
2013-12-24,38.2,33.6,27.6,38.2,25.2,16.6,100,72,53,30.13,29.98,10,3,14,0.00
2013-12-25,27.6,20.9,15.9,17.9,8.4,3.4,71,58,46,30.49,30.13,10,3,20,0.00
2013-12-26,36.5,27.8,19.5,33.0,23.2,10.4,94,83,67,30.44,30.02,8,1,44,0.02
2013-12-27,35.5,28.6,22.9,26.4,23.4,21.2,94,82,63,30.21,30.12,5,1,14,0.00
2013-12-28,46.7,35.0,25.5,32.0,27.7,22.2,89,76,54,30.16,29.92,8,2,14,0.00
2013-12-29,43.8,38.8,33.7,39.7,34.1,28.5,98,84,67,29.97,29.33,14,3,22,1.05
2013-12-30,42.8,34.0,19.9,42.2,26.6,11.4,100,77,48,30.10,29.43,14,2,23,0.00
2013-12-31,26.7,20.4,15.2,17.4,8.8,-0.1,81,61,44,30.12,29.96,8,2,23,0.00